星链-36364(STARLINK-36364)

导读

STARLINK-36364(NORAD编号67978)是美国太空探索技术公司(SpaceX)星链(Starlink)星座中的v1.5版本卫星,目前仍正常在轨工作。该卫星运行在近地轨道,轨道倾角约97.6°,初始轨道高度约550公里,近地点约549公里,远地点约550公里,轨道周期约95.6分钟。作为星链星座的一员,它主要为全球提供宽带互联网接入服务。2026年SpaceX启动降轨计划,将包括该卫星在内的4400颗星链卫星轨道高度降至480公里,以降低碰撞风险,减少太空碎片隐患,提升太空运行安全性。

基本信息
目录编号:
67978
目录名称:
STARLINK-36364
国际标识:
2026-038T
轨道中心:
EARTH
卫星名称:
星链-36364
卫星全名:
星链-36364(STARLINK-36364)
卫星状态:
在轨 (已飞行108 天)
发射日期:
2026-02-25 UTC
国别 :
美国 (US)
星等 :
--
轨道信息
数据来源 国际轨道数据
星历时间: 2026-06-13T02:26:36+0800
10小时前
查看轨道信息
半长轴: 6843.568km
偏心率: 0.0001611
轨道倾角: 97.283°
近地点辐角 95.895°
升交点赤经 173.587°
平近点角 264.248°
近地点: 464.328km
远地点: 466.534km
周期: 93.904分钟
每日圈数: 15.33483
详细信息
固有亮度:
5
最大亮度:
2.5
卫星平台:
Starlink V1.0
覆盖范围:
全球
运营商:
太空探索技术公司
运营商所在国:
美国
制造商(研发单位):
太空探索技术公司
制造商所在国:
美国
使用方式:
暂无
卫星简介
Starlink 计划是 SpaceX 推出的全球卫星互联网项目,通过发射低轨道卫星,为全球尤其是偏远地区提供高速、低延迟的互联网服务。自 2019 年起,Starlink 已部署数千颗卫星,旨在缩小全球数字鸿沟,推动互联网普及。该项目还为军事、航空等行业提供通信支持,带来广泛经济效益。
2D轨道图
3D轨道图
轨道高度分析图
轨道倾角分析图
轨道综合分析图
查看轨道综合分析图